This is the latest recevied weather packets stored in our database for station/object OE-11152. If no packets are shown the sender has not sent any weather packets the latest 10 day(s).
| Time | Temp. | Humidity | Pressure | Rain* | Wind** | Luminosity | Snow |
|---|---|---|---|---|---|---|---|
| 1787622917 | 17.22° C | 65% | 1010.1 hPa | 0 mm | - | 0 W/m² | - |
| 1787622091 | 17.22° C | 64% | 1010.3 hPa | 0 mm | - | 0 W/m² | - |
| 1787621718 | 17.22° C | 65% | 1010.1 hPa | 0 mm | - | 0 W/m² | - |
| 1787621118 | 17.22° C | 65% | 1010.2 hPa | 0 mm | - | 0 W/m² | - |
| 1787620290 | 17.22° C | 64% | 1010.2 hPa | 0 mm | - | 0 W/m² | - |
| 1787619918 | 17.22° C | 64% | 1010.2 hPa | 0 mm | - | 0 W/m² | - |
| 1787619318 | 17.22° C | 65% | 1010 hPa | 0 mm | - | 0 W/m² | - |
| 1787618490 | 17.78° C | 66% | 1010 hPa | 0 mm | - | 0 W/m² | - |
| 1787618118 | 17.78° C | 65% | 1010.2 hPa | 0 mm | - | 0 W/m² | - |
| 1787617518 | 17.78° C | 64% | 1010.6 hPa | 0 mm | - | 0 W/m² | - |
| 1787616691 | 17.22° C | 64% | 1010.7 hPa | 0 mm | - | 0 W/m² | - |
| 1787616318 | 17.78° C | 62% | 1010.9 hPa | 0 mm | - | 0 W/m² | - |
| 1787615718 | 17.78° C | 63% | 1011.1 hPa | 0 mm | - | 0 W/m² | - |
| 1787614890 | 18.33° C | 62% | 1011.1 hPa | 0 mm | - | 0 W/m² | - |
| 1787614518 | 18.33° C | 61% | 1011.1 hPa | 0 mm | - | 0 W/m² | - |
| 1787613918 | 18.33° C | 62% | 1011.5 hPa | 0 mm | - | 0 W/m² | - |
| 1787613318 | 18.33° C | 62% | 1011.8 hPa | 0 mm | - | 0 W/m² | - |
| 1787612717 | 18.33° C | 60% | 1012.1 hPa | 0 mm | - | 0 W/m² | - |
| 1787612118 | 18.33° C | 60% | 1012.1 hPa | 0 mm | - | 0 W/m² | - |
| 1787611291 | 18.33° C | 59% | 1012.3 hPa | 0 mm | - | 0 W/m² | - |
| 1787610917 | 18.33° C | 60% | 1012.5 hPa | 0 mm | - | 0 W/m² | - |
| 1787610318 | 18.89° C | 59% | 1012.4 hPa | 0 mm | - | 0 W/m² | - |
| 1787609491 | 18.89° C | 58% | 1012.6 hPa | 0 mm | - | 0 W/m² | - |
| 1787609118 | 18.33° C | 61% | 1012.8 hPa | 0 mm | - | 0 W/m² | - |
| 1787607691 | 19.44° C | 57% | 1012.6 hPa | 0 mm | - | 0 W/m² | - |
* Rain latest hour (hover to see other rain measurements)
** Current wind speed in m/s (hover to see current wind gust speed)